www.pogodaiklimat.ru

Погода и климат >> Архив погоды >> Россия >> Саратовская область >> Саратов ЮВ


ПОГОДА в Саратове ЮВ

  • Прогноз погоды в Саратове ЮВ
  • Монитор погоды в Саратове ЮВ

АРХИВ ПОГОДЫ в Саратове ЮВ

Время (UTC), дата Ветер
(напр.,м/с)
 
Видим.   Явления Облачность Т
(С)
Тd
(С)
f
(%)
Тe
(С)
Тes
(С)
Комфортность P
(гПа)
Po
(гПа)
Тmin
(С)
Tmax
(С)
R
(мм)
R24
(мм)
S
(см)
18 17.06 штиль 0 10 км 6/0
[Ac trans]
+17.6 +9.1 57 +18 +18 1012.9 997.8
21 17.06 штиль 0 10 км 9/0
[Ac trans]
+16.7 +9.7 63 +17 +17 1013.0 997.8
00 18.06 штиль 0 10 км 8/0
[Ac trans]
+18.7 +9.2 54 +19 +19 1012.6 997.5
03 18.06 СЗ 1 10 км 9/0
[Ac trans Ci fib]
+20.7 +10.3 51 +24 +25 комфорт 1012.9 997.9 +16.1
06 18.06 С 3 10 км 3/0
[Ac trans]
+25.1 +10.1 39 +26 +34 жарко 1012.9 998.1
09 18.06 С 3 10 км 4/0
[Ac trans Ci fib]
+28.3 +9.4 31 +28 +40 жарко 1012.0 997.4
12 18.06 З 2 10 км 5/0
[Ac trans]
+28.9 +9.0 29 +29 +36 жарко 1010.8 996.2
15 18.06 СЗ 2 10 км 8/5 1000 м
[Cb cap Ac trans]
+27.3 +9.5 33 +28 +28 жарко 1010.3 995.7 +29.4
18 18.06 штиль 0 10 км 9/5 1500 м
[Cb cap Ac trans]
+23.6 +11.0 45 +25 +25 комфорт 1010.9 996.1
21 18.06 Ю 1 10 км 8/0
[Ac trans]
+19.5 +12.4 64 +22 +22 комфорт 1010.8 995.8
00 19.06 СЗ 1 10 км 6/0
[Ac trans]
+17.6 +11.6 68 +19 +19 1010.6 995.5
03 19.06 СЗ 2 10 км 3/0
[Ci fib]
+21.3 +13.6 61 +24 +26 комфорт 1010.8 995.9 +17.0
06 19.06 СЗ 3 10 км 4/3 1000 м
[Cu hum Ac trans]
+24.4 +15.1 56 +27 +33 жарко 1011.0 996.2
09 19.06 С 3 10 км 4/4 1000 м
[Cu hum]
+29.8 +11.2 32 +30 +39 жарко 1010.7 996.2
12 19.06 С 5
{10}
10 км 4/4 1000 м
[Cu hum]
+30.4 +10.6 29 +30 +34 жарко 1010.3 995.8
15 19.06 С 3
{10}
10 км 4/4 1000 м
[Cu hum]
+29.0 +9.3 29 +29 +30 жарко 1010.7 996.2 +30.9
18 19.06 С 1 10 км 4/3 1000 м
[Cu hum Ac trans]
+23.6 +10.4 43 +25 +25 комфорт 1012.2 997.4
21 19.06 штиль 0 10 км ясно +17.9 +12.0 68 +18 +18 1013.5 998.4
00 20.06 штиль 0 10 км ясно +18.2 +11.6 65 +18 +18 1014.2 999.1
03 20.06 СЗ 3 10 км ясно +21.4 +12.3 56 +24 +25 комфорт 1014.9 999.9 +16.3
06 20.06 С 2 10 км ясно +27.6 +12.9 40 +29 +41 жарко 1015.2 1000.5
09 20.06 С 2 10 км 4/4
[Cu hum]
+27.8 +11.0 35 +29 +39 жарко 1014.8 1000.1
12 20.06 штиль 0 10 км 4/1 1000 м
[Cu hum]
+31.1 +11.1 29 +31 +42 жарко 1013.9 999.4
15 20.06 штиль 0 10 км 3/0 1000 м
[Cu hum]
+29.1 +10.9 32 +29 +32 жарко 1013.8 999.2 +31.8
18 20.06 штиль 0 10 км 3/0
[Ac trans]
+23.1 +10.7 46 +25 +25 комфорт 1015.1 1000.2
21 20.06 штиль 0 10 км 1/0
[Ac trans]
+20.4 +10.4 53 +22 +22 комфорт 1016.2 1001.1
00 21.06 СЗ 1 10 км 1/0
[Ac trans]
+20.8 +9.2 47 +23 +23 комфорт 1016.6 1001.6
03 21.06 СЗ 2 10 км 1/0
[Ci fib]
+22.7 +9.9 44 +24 +27 комфорт 1017.7 1002.8 +18.7
06 21.06 штиль 0 10 км 4/0
[Ci fib]
+28.4 +12.2 37 +30 +44 жарко 1018.1 1003.4
09 21.06 В 1 10 км 8/3
[Cu med, cong Ci fib]
+31.2 +11.4 30 +32 +44 жарко 1017.6 1003.0
12 21.06 В 2 10 км 4/3 1500 м
[Cu hum Ci fib]
+31.3 +9.1 25 +30 +38 жарко 1017.0 1002.5
15 21.06 штиль 0 10 км 4/0
[Ac trans Ci fib]
+29.7 +10.1 30 +30 +32 жарко 1016.5 1001.9 +33.0
18 21.06 штиль 0 10 км 5/0
[Ac trans]
+21.8 +12.3 55 +24 +24 комфорт 1017.6 1002.6
21 21.06 штиль 0 10 км 3/0
[Ac trans]
+19.4 +10.9 58 +20 +20 1018.0 1002.9
00 22.06 штиль 0 10 км 3/0
[Ac trans]
+16.8 +11.8 72 +17 +17 1018.8 1003.5
03 22.06 штиль 0 10 км 8/0
[Ac trans]
+21.4 +15.3 68 +25 +26 комфорт 1019.6 1004.5 +16.6
06 22.06 штиль 0 10 км 8/0
[Ac trans]
+29.0 +12.4 36 +30 +38 жарко 1019.3 1004.6
09 22.06 ЮВ 2 10 км 8/5 1500 м
[Cu hum Ac trans]
+31.3 +6.9 22 +30 +35 жарко 1018.7 1004.1
12 22.06 Ю 1 10 км 4/4 1500 м
[Cu hum]
+33.2 +7.4 20 +31 +39 жарко 1017.9 1003.4
15 22.06 штиль 0 10 км 4/0
[Ac trans Ci fib]
+32.1 +8.1 23 +31 +33 жарко 1017.2 1002.7 +33.5
18 22.06 штиль 0 10 км ясно +24.1 +10.1 41 +25 +25 комфорт 1017.6 1002.7
21 22.06 штиль 0 10 км 8/0
[Ac trans]
+21.8 +10.3 48 +24 +24 комфорт 1017.8 1002.7
00 23.06 Ю 1 10 км 6/0
[Ac trans]
+22.2 +12.5 54 +25 +25 комфорт 1018.4 1003.4
03 23.06 штиль 0 10 км 6/0
[Ac trans]
+25.7 +14.3 49 +28 +30 жарко 1018.3 1003.5 +20.1
06 23.06 штиль 0 10 км 4/0
[Ac trans]
+31.6 +11.8 30 +32 +44 жарко 1018.1 1003.6
09 23.06 С 1 10 км 6/4 1000 м
[Cu hum Ac trans]
+33.7 +8.5 21 +32 +42 жарко 1017.4 1002.9
12 23.06 штиль 0 10 км 6/4 1000 м
[Cu hum Ac trans]
+35.7 +6.7 17 +33 +41 жарко 1016.5 1002.2
15 23.06 штиль 0 10 км 6/4 1000 м
[Cu hum Ac trans]
+33.2 +8.4 22 +32 +33 жарко 1015.7 1001.2 +36.0
18 23.06 штиль 0 10 км 4/0
[Ac trans Ci fib]
+24.7 +12.7 47 +27 +27 жарко 1016.1 1001.3
21 23.06 штиль 0 10 км 8/8 480 м
[Sc]
+22.9 +11.8 50 +25 +25 комфорт 1016.4 1001.5
00 24.06 штиль 0 10 км 6/6 480 м
[Sc]
+21.1 +12.1 56 +23 +23 комфорт 1016.2 1001.2
03 24.06 штиль 0 10 км 8/0
[Ac trans]
+25.5 +13.6 48 +28 +29 жарко 1016.3 1001.5 +20.5
06 24.06 штиль 0 10 км 8/0
[Ac trans]
+30.4 +16.1 42 +33 +41 душно 1015.9 1001.4
09 24.06 ЮЗ 1 10 км 8/3 1000 м
[Cu med, cong Ac trans Ci fib]
+35.6 +7.0 17 +33 +42 жарко 1015.0 1000.7
12 24.06 З 2 10 км 8/4 1000 м
[Cu med, cong Ci fib]
+36.0 +6.1 16 +34 +39 очень
жарко
1013.8 999.5
15 24.06 С 4 10 км 9/4 1000 м
[Cu med, cong Ac trans Ci fib]
+33.3 +12.8 29 +34 +34 очень
жарко
1013.6 999.2 +36.6

 

Местоположение метеостанции Саратов ЮВ (Саратовская область, Россия): широта 51.57 долгота 46.00 высота над уровнем моря 129 м.

В архиве по умолчанию представлена погода в Саратове ЮВ за последнюю неделю. Архивные данные за месяц целиком и за предыдущие месяцы, начиная с января 2011 года, Вы можете получить, выбрав интересующий диапазон дат из раскрывающегося списка и нажав кнопку "Ввод!".


*Определитесь, кто Вы:
робот инопланетянин человек

Внимание! Время в таблицах - всемирное. Для получения местного времени необходимо прибавить поправку, которая равна 4 ч.

Смотрите также архив погоды в соседних городах и на ближайших метеорологических станциях:

Погода в Саратове (Саратовская область, Россия) (2 км)
Погода в Октябрьском Городке (Саратовская область, Россия) (39 км)
Погода в Маркс (Саратовская область, Россия) (52 км)
Погода в Сплавнухе (Саратовская область, Россия) (70 км)
Погода в Аткарске (Саратовская область, Россия) (75 км)
Погода в Карабулаке (Саратовская область, Россия) (88 км)
Погода в Петровске (Саратовская область, Россия) (89 км)
Погода в Красном Куте (Саратовская область, Россия) (97 км)
Погода в Калининске (Саратовская область, Россия) (104 км)
Погода в Рудне (Волгоградская область, Россия) (129 км)

Пояснения к столбцам:

Ветер - указаны скорость ветра в м/с - средняя за 10 мин, порывы в срок и между сроками (в фигурных скобках) и направление, откуда дует ветер: С - северный, СВ - северо-восточный, В - восточный, ЮВ - юго-восточный, Ю - южный, ЮЗ - юго-западный, З - западный, СЗ - северо-западный.
Видимость - горизонтальная дальность видимости в метрах или километрах. При видимости от 1 до 10 км при отсутствии осадков обычно наблюдается дымка, при ухудшении видимости до 1 км и менее - туман. В сухую погоду видимость может ухудшаться дымом, пылью или мглою.
Явления - указаны атмосферные явления, наблюдавшиеся в срок или в последний час перед сроком; фигурными скобками обозначены явления, наблюдавшиеся между сроками (за 1-3 часа до срока); квадратными скобками обозначены град или гололедные отложения с указанием их диаметра в мм.
Облачность - указаны через наклонную черту общая и нижняя облачность в баллах и высота нижней границы облаков в метрах; квадратными скобками обозначены формы облаков: Ci - перистые, Cs - перисто-слоистые, Cc - перисто-кучевые, Ac - высококучевые, As - высокослоистые, Sc - слоисто-кучевые, Ns - слоисто-дождевые, Cu - кучевые, Cb - кучево-дождевые. Подробнее классификацию облаков см. в Атласе облаков (PDF).
T - Температура воздуха - температура, измеренная на высоте 2 м над землей.
Td - Температура точки росы - температура, при понижении до которой содержащийся в воздухе водяной пар достигнет насыщения.
f - Относительная влажность воздуха - влажноcть воздуха, измеренная на высоте 2 м над землей.
Te - Эффективная температура - температура, которую ощущает одетый по сезону человек в тени. Характеристика душности погоды. При расчете учитывается влияние влажности воздуха и скорости ветра на теплоощущения человека.
Tes - Эффективная температура на солнце - температура, которую ощущает человек, с поправкой на солнечный нагрев. Характеристика знойности погоды. Зависит от высоты солнца над горизонтом, облачности и скорости ветра. Ночью, в пасмурную погоду, а также при ветре 12 м/с и более поправка равна нулю.
P - Атмосферное давление - приведенное к уровню моря атмосферное давление.
Po - Атмосферное давление - измеренное на уровне метеостанции атмосферное давление.
Tmin - Минимальная температура - минимум температуры воздуха на высоте 2 м над землей.
Tmax - Максимальная температура - максимум температуры воздуха на высоте 2 м над землей.
R - Количество осадков - Количество выпавших осадков за период времени, мм. При наведении курсора мыши на число - период времени, за который выпало указанное количество осадков.
R24 - Количество осадков - Количество выпавших осадков за 24 часа, мм.
S - Снежный покров - Высота снежного покрова, см. При наведении курсора мыши на число - состояние снежного покрова и степень покрытия местности в баллах.